Melilla, Spain

10:32 PM CEST on October 01, 2016 (GMT +0200)
Melilla

Weather History for GEML - March, 2014

Change the Weather History Date:

Sunday, March 30, 2014

  Actual Average Record
Temperature  
Mean Temperature 58 °F -  
Max Temperature 65 °F 68 °F 77 °F (2005)
Min Temperature 51 °F 56 °F 51 °F (2014)
Degree Days  
Heating Degree Days 7    
Growing Degree Days 8 (Base 50)    
Moisture  
Dew Point 46 °F    
Average Humidity 58    
Maximum Humidity 88    
Minimum Humidity 43    
Precipitation  
Precipitation 0.00 in - - ()
Sea Level Pressure  
Sea Level Pressure 29.97 in    
Wind  
Wind Speed 6 mph ()    
Max Wind Speed 13 mph    
Max Gust Speed -    
Visibility 6.2 miles    
Events Rain    
Averages and records for this station are not official NWS values.
T = Trace of Precipitation, MM = Missing Value Source: Averaged Metar Reports

Daily Weather History Graph

Daily Weather History Graph

Search for Another Location

Airport or City:

Trip Planner

Search our weather history database for the weather conditions in past years. The results will help you decide how hot, cold, wet, or windy it might be!

Date:

Astronomy

Mar. 30, 2014 Rise Set
Actual Time 8:01 AM CEST 8:31 PM CEST
Civil Twilight 7:36 AM CEST 8:57 PM CEST
Nautical Twilight 7:06 AM CEST 9:27 PM CEST
Astronomical Twilight 6:35 AM CEST 9:57 PM CEST
Moon 7:37 AM CEST (3/30) 8:27 PM CEST (3/30)
Length of Visible Light 13h 20m
Length of Day
12h 29m
Waning Crescent, 0% of the Moon is Illuminated
Mar 30
Waning Crescent
Mar 30
New
Apr 7
First Quarter
Apr 15
Full
Apr 22
Last Quarter

Hourly Weather History & Observations

Time (CEST) Temp. Dew Point Humidity Pressure Visibility Wind Dir Wind Speed Gust Speed Precip Events Conditions
6:00 AM 51.8 °F 46.4 °F 82% 29.89 in 6.2 mi Calm Calm - N/A   Partly Cloudy
6:30 AM 51.8 °F 46.4 °F 82% 29.89 in 6.2 mi NNW 3.5 mph - N/A   Partly Cloudy
7:00 AM 51.8 °F 48.2 °F 88% 29.89 in 6.2 mi Calm Calm - N/A Rain Light Rain
7:30 AM 51.8 °F 46.4 °F 82% 29.92 in 6.2 mi Calm Calm - N/A   Partly Cloudy
8:00 AM 53 °F 42 °F 58% 29.92 in 31 mi SW 2.3 mph - - Rain Light Rain
8:00 AM 53.6 °F 42.8 °F 67% 29.92 in 6.2 mi SW 2.3 mph - N/A Rain Light Rain
8:30 AM 55.4 °F 42.8 °F 63% 29.92 in 6.2 mi Variable 2.3 mph - N/A   Partly Cloudy
9:00 AM 55.4 °F 42.8 °F 63% 29.95 in 6.2 mi Variable 2.3 mph - N/A   Partly Cloudy
9:30 AM 59.0 °F 42.8 °F 55% 29.95 in 6.2 mi WSW 4.6 mph - N/A   Partly Cloudy
10:00 AM 59.0 °F 44.6 °F 59% 29.95 in 6.2 mi WSW 6.9 mph - N/A   Partly Cloudy
10:30 AM 60.8 °F 44.6 °F 55% 29.98 in 6.2 mi West 11.5 mph - N/A   Partly Cloudy
11:00 AM 61 °F 46 °F 46% 29.97 in 31 mi WSW 12.7 mph - -   Partly Cloudy
11:00 AM 62.6 °F 46.4 °F 55% 29.98 in 6.2 mi West 10.4 mph - N/A   Partly Cloudy
11:30 AM 62.6 °F 48.2 °F 59% 29.98 in 6.2 mi West 12.7 mph - N/A   Scattered Clouds
12:00 PM 60.8 °F 46.4 °F 59% 29.98 in 6.2 mi West 11.5 mph - N/A   Scattered Clouds
12:30 PM 62.6 °F 48.2 °F 59% 29.98 in 6.2 mi West 10.4 mph - N/A   Scattered Clouds
1:00 PM 62.6 °F 50.0 °F 63% 30.01 in 6.2 mi West 11.5 mph - N/A   Scattered Clouds
1:30 PM 64.4 °F 48.2 °F 56% 29.98 in 6.2 mi West 12.7 mph - N/A   Partly Cloudy
2:00 PM 64 °F 47 °F 43% 29.99 in 31 mi West 12.7 mph - -   Partly Cloudy
2:00 PM 64.4 °F 46.4 °F 52% 29.98 in 6.2 mi West 12.7 mph - N/A   Partly Cloudy
2:30 PM 64.4 °F 48.2 °F 56% 29.98 in 6.2 mi West 11.5 mph - N/A   Partly Cloudy
3:00 PM 64.4 °F 44.6 °F 49% 29.98 in 6.2 mi West 10.4 mph - N/A   Partly Cloudy
3:30 PM 66.2 °F 46.4 °F 49% 29.98 in 6.2 mi WNW 9.2 mph - N/A   Partly Cloudy
4:00 PM 64.4 °F 46.4 °F 52% 29.98 in 6.2 mi West 11.5 mph - N/A   Partly Cloudy
4:30 PM 64.4 °F 48.2 °F 56% 29.98 in 6.2 mi WNW 12.7 mph - N/A   Partly Cloudy
5:00 PM 64 °F 49 °F 47% 29.97 in 31 mi WNW 12.7 mph - -   Scattered Clouds
5:00 PM 64.4 °F 48.2 °F 56% 29.98 in 6.2 mi WNW 12.7 mph - N/A   Partly Cloudy
5:30 PM 64.4 °F 44.6 °F 49% 29.98 in - West 11.5 mph - N/A   Clear
6:00 PM 64.4 °F 44.6 °F 49% 29.98 in - West 8.1 mph - N/A   Clear
6:30 PM 62.6 °F 44.6 °F 52% 29.98 in 6.2 mi West 9.2 mph - N/A   Partly Cloudy
7:00 PM 62.6 °F 48.2 °F 59% 29.98 in - West 9.2 mph - N/A   Clear
7:30 PM 62.6 °F 46.4 °F 55% 29.98 in - West 10.4 mph - N/A   Clear
8:00 PM 62 °F 47 °F 49% 29.99 in 31 mi West 8.1 mph - -   Partly Cloudy
8:00 PM 60.8 °F 46.4 °F 59% 30.01 in - West 9.2 mph - N/A   Clear
8:30 PM 60.8 °F 46.4 °F 59% 30.01 in - WSW 8.1 mph - N/A   Clear
11:00 PM 59 °F 48 °F 57% 30.01 in 25 mi West 5.8 mph - -   Mostly Cloudy